TimeMDT,TemperatureF,Dew PointF,Humidity,Sea Level PressureIn,VisibilityMPH,Wind Direction,Wind SpeedMPH,Gust SpeedMPH,PrecipitationIn,Events,Conditions,WindDirDegrees,DateUTC
12:15 AM,60.4,52.0,74,29.67,10.0,ENE,6.9,-,N/A,,Clear,70,2013-09-27 06:15:00
12:35 AM,59.9,51.4,74,29.68,10.0,ENE,8.1,-,N/A,,Clear,70,2013-09-27 06:35:00
12:55 AM,59.0,51.1,75,29.68,10.0,ENE,5.8,-,N/A,,Clear,70,2013-09-27 06:55:00
1:15 AM,59.2,50.5,73,29.68,10.0,NE,16.1,20.7,N/A,,Clear,40,2013-09-27 07:15:00
1:35 AM,58.5,50.2,74,29.67,10.0,NE,15.0,-,N/A,,Clear,40,2013-09-27 07:35:00
1:55 AM,58.1,50.4,75,29.68,10.0,NE,11.5,18.4,N/A,,Clear,40,2013-09-27 07:55:00
2:15 AM,57.4,50.9,79,29.68,10.0,NNE,12.7,21.9,N/A,,Clear,30,2013-09-27 08:15:00
2:35 AM,56.5,50.5,80,29.68,10.0,NNE,13.8,18.4,N/A,,Clear,30,2013-09-27 08:35:00
2:55 AM,55.8,50.4,82,29.68,10.0,NNE,13.8,21.9,N/A,,Clear,30,2013-09-27 08:55:00
3:15 AM,54.9,49.6,83,29.69,10.0,NNE,11.5,17.3,N/A,,Clear,30,2013-09-27 09:15:00
3:35 AM,54.0,48.4,81,29.69,10.0,North,8.1,20.7,N/A,,Clear,10,2013-09-27 09:35:00
3:55 AM,52.9,47.8,83,29.69,10.0,NNE,15.0,-,N/A,,Clear,20,2013-09-27 09:55:00
4:15 AM,52.2,46.9,82,29.70,10.0,North,11.5,-,N/A,,Clear,10,2013-09-27 10:15:00
4:35 AM,51.4,46.4,83,29.70,10.0,NNE,16.1,21.9,N/A,,Clear,20,2013-09-27 10:35:00
4:55 AM,50.9,45.9,83,29.71,10.0,NNE,13.8,-,N/A,,Clear,30,2013-09-27 10:55:00
5:15 AM,50.4,45.5,83,29.72,10.0,NNE,13.8,-,N/A,,Clear,20,2013-09-27 11:15:00
5:35 AM,50.0,45.1,83,29.73,10.0,North,15.0,18.4,N/A,,Clear,10,2013-09-27 11:35:00
5:55 AM,49.6,44.6,83,29.73,10.0,North,16.1,24.2,N/A,,Clear,10,2013-09-27 11:55:00
6:15 AM,49.1,44.2,83,29.73,10.0,North,15.0,19.6,N/A,,Clear,10,2013-09-27 12:15:00
6:35 AM,48.9,43.9,83,29.74,10.0,NNE,13.8,21.9,N/A,,Clear,20,2013-09-27 12:35:00
6:55 AM,48.7,43.7,83,29.75,10.0,NNE,12.7,-,N/A,,Clear,20,2013-09-27 12:55:00
7:15 AM,49.5,43.9,81,29.75,10.0,North,8.1,-,N/A,,Clear,10,2013-09-27 13:15:00
7:35 AM,50.9,44.1,77,29.78,10.0,North,10.4,16.1,N/A,,Scattered Clouds,360,2013-09-27 13:35:00
7:55 AM,51.4,43.3,74,29.77,10.0,North,12.7,20.7,N/A,,Mostly Cloudy,360,2013-09-27 13:55:00
8:15 AM,52.0,43.2,72,29.78,10.0,North,17.3,24.2,N/A,,Overcast,360,2013-09-27 14:15:00
8:35 AM,53.1,43.3,70,29.78,10.0,North,15.0,19.6,N/A,,Overcast,10,2013-09-27 14:35:00
8:55 AM,54.5,43.2,66,29.79,10.0,North,17.3,-,N/A,,Overcast,360,2013-09-27 14:55:00
9:15 AM,54.9,43.0,64,29.80,10.0,North,15.0,-,N/A,,Overcast,360,2013-09-27 15:15:00
9:35 AM,56.5,43.3,61,29.81,10.0,North,16.1,20.7,N/A,,Overcast,350,2013-09-27 15:35:00
9:55 AM,56.5,43.0,61,29.80,10.0,North,16.1,21.9,N/A,,Overcast,360,2013-09-27 15:55:00
10:15 AM,58.5,43.5,58,29.81,10.0,North,13.8,17.3,N/A,,Overcast,10,2013-09-27 16:15:00
10:35 AM,58.8,43.3,56,29.82,10.0,NNW,13.8,-,N/A,,Overcast,340,2013-09-27 16:35:00
10:55 AM,57.9,43.0,58,29.81,10.0,North,16.1,20.7,N/A,,Mostly Cloudy,350,2013-09-27 16:55:00
11:15 AM,58.8,43.2,56,29.81,10.0,North,15.0,21.9,N/A,,Scattered Clouds,350,2013-09-27 17:15:00
11:35 AM,59.2,43.5,56,29.82,10.0,North,13.8,20.7,N/A,,Clear,360,2013-09-27 17:35:00
11:55 AM,58.6,43.7,58,29.83,10.0,North,11.5,-,N/A,,Clear,350,2013-09-27 17:55:00
12:15 PM,58.1,44.4,60,29.84,10.0,North,12.7,17.3,N/A,,Clear,360,2013-09-27 18:15:00
12:35 PM,58.1,44.8,61,29.84,10.0,North,10.4,18.4,N/A,,Scattered Clouds,10,2013-09-27 18:35:00
12:55 PM,58.8,44.8,60,29.83,10.0,North,13.8,17.3,N/A,,Scattered Clouds,350,2013-09-27 18:55:00
1:15 PM,60.1,45.1,58,29.81,10.0,North,13.8,20.7,N/A,,Clear,350,2013-09-27 19:15:00
1:35 PM,60.4,45.5,58,29.81,10.0,NNE,15.0,-,N/A,,Scattered Clouds,20,2013-09-27 19:35:00
1:55 PM,61.9,45.5,55,29.82,10.0,North,8.1,16.1,N/A,,Scattered Clouds,10,2013-09-27 19:55:00
2:15 PM,61.7,45.5,55,29.81,10.0,North,10.4,16.1,N/A,,Clear,360,2013-09-27 20:15:00
2:35 PM,61.9,45.9,56,29.79,10.0,North,13.8,19.6,N/A,,Clear,360,2013-09-27 20:35:00
2:55 PM,62.1,46.0,56,29.79,10.0,North,13.8,18.4,N/A,,Clear,360,2013-09-27 20:55:00
3:15 PM,60.3,46.4,60,29.79,10.0,North,13.8,19.6,N/A,,Clear,10,2013-09-27 21:15:00
3:35 PM,59.5,46.4,62,29.80,10.0,North,11.5,18.4,N/A,,Clear,350,2013-09-27 21:35:00
3:55 PM,59.7,46.2,61,29.79,10.0,North,12.7,-,N/A,,Scattered Clouds,350,2013-09-27 21:55:00
4:15 PM,59.2,45.9,61,29.80,10.0,North,11.5,18.4,N/A,,Mostly Cloudy,360,2013-09-27 22:15:00
4:35 PM,59.0,46.4,63,29.81,10.0,North,11.5,-,N/A,,Overcast,360,2013-09-27 22:35:00
4:55 PM,58.3,46.6,65,29.82,10.0,NNW,13.8,-,N/A,,Overcast,340,2013-09-27 22:55:00
5:15 PM,57.4,46.4,67,29.79,10.0,North,13.8,-,N/A,,Overcast,360,2013-09-27 23:15:00
5:35 PM,56.8,45.9,67,29.77,10.0,North,18.4,-,N/A,,Overcast,350,2013-09-27 23:35:00
5:55 PM,55.9,45.7,68,29.79,10.0,North,17.3,23.0,N/A,,Overcast,350,2013-09-27 23:55:00
6:15 PM,54.3,45.9,73,29.81,10.0,NNW,20.7,25.3,N/A,,Overcast,330,2013-09-28 00:15:00
6:35 PM,52.2,47.1,83,29.85,7.0,NNW,18.4,-,N/A,Rain-Thunderstorm,Rain,330,2013-09-28 00:35:00
6:55 PM,50.4,46.6,87,29.87,10.0,NW,18.4,26.5,0.03,Rain-Thunderstorm,Light Thunderstorms and Rain,320,2013-09-28 00:55:00
7:15 PM,49.5,46.4,89,29.85,7.0,NNW,16.1,29.9,0.08,Rain,Light Rain,340,2013-09-28 01:15:00
7:35 PM,49.3,46.4,90,29.88,10.0,NNW,17.3,24.2,0.09,Rain,Light Rain,340,2013-09-28 01:35:00
7:55 PM,49.1,46.0,89,29.86,10.0,NNW,13.8,-,0.10,,Light Drizzle,340,2013-09-28 01:55:00
8:15 PM,49.1,45.7,88,29.87,10.0,NNW,18.4,21.9,N/A,,Overcast,340,2013-09-28 02:15:00
8:55 PM,48.4,45.5,90,29.90,10.0,NNW,16.1,-,0.02,Rain,Rain,340,2013-09-28 02:55:00
9:15 PM,48.6,45.3,89,29.91,10.0,NNW,13.8,24.2,N/A,,Overcast,330,2013-09-28 03:15:00
9:35 PM,48.4,44.8,87,29.90,10.0,NNW,16.1,20.7,0.01,Rain,Light Rain,340,2013-09-28 03:35:00
9:55 PM,48.4,44.8,87,29.90,10.0,NNW,13.8,-,0.01,Rain,Light Rain,340,2013-09-28 03:55:00
10:15 PM,48.4,44.8,87,29.92,10.0,NNW,6.9,-,N/A,,Drizzle,330,2013-09-28 04:15:00
10:35 PM,48.6,45.1,88,29.93,10.0,North,6.9,-,N/A,,Light Drizzle,360,2013-09-28 04:35:00
10:55 PM,48.6,45.3,89,29.93,10.0,NW,12.7,-,N/A,,Overcast,310,2013-09-28 04:55:00
11:15 PM,48.2,44.6,87,29.93,10.0,NW,16.1,21.9,N/A,,Overcast,320,2013-09-28 05:15:00
11:55 PM,47.8,43.9,86,29.93,10.0,NNW,16.1,23.0,N/A,,Overcast,330,2013-09-28 05:55:00